• In Belarus
  • List of Countries
  • For 7 days
  • Water Temperature
  • Weather Map
  • Weather Widgets
  • user-avatar
    Login

    Hourly Weather Aschibulak

    Today, 17 January, Friday

    Time Temperature Precipitation Wind Pressure Humidity
    00:00 -16°C° 0 mm 2 mps 680 mmHg 66%
    01:00 -16°C° 0 mm 2 mps 680 mmHg 61%
    02:00 -16°C° 0 mm 2 mps 681 mmHg 55%
    03:00 -16°C° 0 mm 2 mps 680 mmHg 53%
    04:00 -17°C° 0 mm 3 mps 680 mmHg 50%
    05:00 -17°C° 0 mm 3 mps 681 mmHg 51%
    06:00 -17°C° 0 mm 3 mps 681 mmHg 49%
    07:00 -15°C° 0 mm 2 mps 681 mmHg 46%
    08:00 -15°C° 0 mm 2 mps 681 mmHg 43%
    09:00 -13°C° 0 mm 2 mps 682 mmHg 48%
    10:00 -9°C° 0 mm 1 mps 682 mmHg 53%
    11:00 -7°C° 0 mm 1 mps 682 mmHg 55%
    12:00 -7°C° 0 mm 1 mps 682 mmHg 59%
    13:00 -7°C° 0 mm 1 mps 681 mmHg 63%
    14:00 -7°C° 0 mm 1 mps 681 mmHg 66%
    15:00 -8°C° 0 mm 1 mps 681 mmHg 59%
    16:00 -10°C° 0 mm 2 mps 680 mmHg 51%
    17:00 -12°C° 0 mm 3 mps 681 mmHg 43%
    18:00 -10°C° 0 mm 2 mps 681 mmHg 42%
    19:00 -10°C° 0 mm 2 mps 680 mmHg 41%
    20:00 -9°C° 0 mm 2 mps 680 mmHg 41%
    21:00 -9°C° 0 mm 2 mps 680 mmHg 40%
    22:00 -9°C° 0 mm 2 mps 680 mmHg 39%
    23:00 -9°C° 0 mm 2 mps 680 mmHg 39%

    Tomorrow, 18 January, Saturday

    Time Temperature Precipitation Wind Pressure Humidity
    00:00 -9°C° 0 mm 2 mps 680 mmHg 39%
    01:00 -9°C° 0 mm 2 mps 679 mmHg 38%
    02:00 -9°C° 0 mm 2 mps 679 mmHg 38%
    03:00 -9°C° 0 mm 2 mps 679 mmHg 39%
    04:00 -9°C° 0 mm 2 mps 679 mmHg 40%
    05:00 -8°C° 0 mm 1 mps 678 mmHg 40%
    06:00 -7°C° 0 mm 1 mps 678 mmHg 42%
    07:00 -7°C° 0 mm 1 mps 679 mmHg 44%
    08:00 -6°C° 0 mm 1 mps 679 mmHg 46%
    09:00 -4°C° 0 mm 1 mps 679 mmHg 51%
    10:00 -4°C° 0 mm 0 mps 679 mmHg 56%
    11:00 -2°C° 0 mm 0 mps 679 mmHg 62%
    12:00 -2°C° 0 mm 0 mps 678 mmHg 66%
    13:00 -2°C° 0 mm 0 mps 678 mmHg 70%
    14:00 -2°C° 0 mm 0 mps 677 mmHg 74%
    15:00 -3°C° 0 mm 1 mps 677 mmHg 72%
    16:00 -4°C° 0 mm 1 mps 676 mmHg 69%
    17:00 -7°C° 0 mm 1 mps 675 mmHg 67%
    18:00 -7°C° 0 mm 1 mps 675 mmHg 64%
    19:00 -7°C° 0 mm 1 mps 675 mmHg 62%
    20:00 -7°C° 0 mm 1 mps 675 mmHg 60%
    21:00 -6°C° 0 mm 1 mps 674 mmHg 59%
    22:00 -6°C° 0 mm 1 mps 674 mmHg 58%
    23:00 -6°C° 0 mm 1 mps 673 mmHg 57%

    Day after tomorrow, 19 January, Sunday

    Time Temperature Precipitation Wind Pressure Humidity
    00:00 -6°C° 0 mm 1 mps 673 mmHg 57%
    01:00 -6°C° 0 mm 1 mps 672 mmHg 56%
    02:00 -6°C° 0 mm 1 mps 672 mmHg 56%
    03:00 -6°C° 0 mm 1 mps 671 mmHg 56%
    04:00 -6°C° 0 mm 1 mps 671 mmHg 55%
    05:00 -6°C° 0 mm 1 mps 671 mmHg 54%
    06:00 -6°C° 0 mm 1 mps 671 mmHg 54%
    07:00 -6°C° 0 mm 1 mps 671 mmHg 53%
    08:00 -6°C° 0 mm 1 mps 671 mmHg 53%
    09:00 -3°C° 0 mm 1 mps 671 mmHg 58%
    10:00 -2°C° 0 mm 1 mps 671 mmHg 62%
    11:00 0°C° 0 mm 1 mps 671 mmHg 67%
    12:00 0°C° 0 mm 1 mps 671 mmHg 71%
    13:00 0°C° 0 mm 1 mps 671 mmHg 75%
    14:00 0°C° 0 mm 1 mps 670 mmHg 78%
    15:00 -2°C° 0 mm 1 mps 670 mmHg 74%
    16:00 -4°C° 0 mm 1 mps 670 mmHg 69%
    17:00 -6°C° 0 mm 1 mps 670 mmHg 64%
    18:00 -6°C° 0 mm 1 mps 670 mmHg 63%
    19:00 -6°C° 0 mm 1 mps 670 mmHg 61%
    20:00 -6°C° 0 mm 1 mps 670 mmHg 59%
    21:00 -6°C° 0 mm 1 mps 670 mmHg 59%
    22:00 -6°C° 0 mm 1 mps 670 mmHg 60%
    23:00 -6°C° 0 mm 1 mps 670 mmHg 60%

    20 January, Monday

    Time Temperature Precipitation Wind Pressure Humidity
    00:00 -6°C° 0 mm 1 mps 670 mmHg 59%
    01:00 -6°C° 0 mm 1 mps 670 mmHg 58%
    02:00 -6°C° 0 mm 1 mps 670 mmHg 57%
    03:00 -6°C° 0 mm 1 mps 670 mmHg 56%
    04:00 -6°C° 0 mm 1 mps 670 mmHg 55%
    05:00 -6°C° 0 mm 1 mps 671 mmHg 55%
    06:00 -6°C° 0 mm 1 mps 671 mmHg 57%
    07:00 -6°C° 0 mm 1 mps 671 mmHg 58%
    08:00 -6°C° 0 mm 1 mps 671 mmHg 60%
    09:00 -4°C° 0 mm 1 mps 672 mmHg 65%
    10:00 -4°C° 0 mm 1 mps 672 mmHg 70%
    11:00 -3°C° 0 mm 1 mps 672 mmHg 75%
    12:00 -3°C° 0.1 mm 1 mps 672 mmHg 80%
    13:00 -4°C° 0.1 mm 2 mps 672 mmHg 84%
    14:00 -4°C° 0.1 mm 2 mps 672 mmHg 88%
    15:00 -5°C° 0.2 mm 2 mps 672 mmHg 90%
    16:00 -5°C° 0.2 mm 2 mps 673 mmHg 92%
    17:00 -3°C° 0.2 mm 1 mps 673 mmHg 94%
    18:00 -4°C° 0.1 mm 1 mps 673 mmHg 94%
    19:00 -4°C° 0.1 mm 1 mps 673 mmHg 93%
    20:00 -4°C° 0.1 mm 1 mps 673 mmHg 92%
    21:00 -6°C° 0.1 mm 1 mps 673 mmHg 89%
    22:00 -8°C° 0.1 mm 2 mps 673 mmHg 86%
    23:00 -8°C° 0.1 mm 2 mps 672 mmHg 82%

    21 January, Tuesday

    Time Temperature Precipitation Wind Pressure Humidity
    00:00 -8°C° 0 mm 2 mps 672 mmHg 80%
    01:00 -9°C° 0 mm 2 mps 672 mmHg 77%
    02:00 -9°C° 0 mm 2 mps 672 mmHg 74%
    03:00 -9°C° 0 mm 2 mps 672 mmHg 73%
    04:00 -9°C° 0 mm 2 mps 672 mmHg 72%
    05:00 -9°C° 0 mm 2 mps 672 mmHg 71%
    06:00 -9°C° 0 mm 2 mps 672 mmHg 70%
    07:00 -9°C° 0 mm 2 mps 673 mmHg 70%
    08:00 -9°C° 0 mm 2 mps 673 mmHg 69%
    09:00 -8°C° 0 mm 2 mps 673 mmHg 72%
    10:00 -4°C° 0 mm 1 mps 673 mmHg 75%
    11:00 -3°C° 0 mm 1 mps 674 mmHg 79%
    12:00 -3°C° 0 mm 1 mps 673 mmHg 81%
    13:00 -3°C° 0 mm 1 mps 673 mmHg 84%
    14:00 -3°C° 0 mm 1 mps 673 mmHg 86%
    15:00 -4°C° 0 mm 1 mps 673 mmHg 86%
    16:00 -6°C° 0 mm 1 mps 673 mmHg 86%
    17:00 -7°C° 0 mm 1 mps 673 mmHg 86%
    18:00 -7°C° 0 mm 1 mps 673 mmHg 84%
    19:00 -7°C° 0 mm 1 mps 673 mmHg 82%
    20:00 -7°C° 0 mm 1 mps 673 mmHg 80%
    21:00 -7°C° 0 mm 1 mps 673 mmHg 78%
    22:00 -7°C° 0 mm 1 mps 673 mmHg 77%
    23:00 -7°C° 0 mm 1 mps 674 mmHg 76%

    22 January, Wednesday

    Time Temperature Precipitation Wind Pressure Humidity
    00:00 -7°C° 0 mm 1 mps 674 mmHg 77%
    01:00 -7°C° 0 mm 1 mps 674 mmHg 79%
    02:00 -7°C° 0 mm 1 mps 674 mmHg 80%
    03:00 -7°C° 0 mm 1 mps 674 mmHg 81%
    04:00 -7°C° 0 mm 1 mps 675 mmHg 83%
    05:00 -7°C° 0 mm 1 mps 675 mmHg 84%
    06:00 -7°C° 0.1 mm 1 mps 676 mmHg 84%
    07:00 -7°C° 0.1 mm 1 mps 676 mmHg 85%
    08:00 -7°C° 0.1 mm 1 mps 676 mmHg 86%
    09:00 -4°C° 0 mm 1 mps 677 mmHg 85%
    10:00 -3°C° 0 mm 1 mps 677 mmHg 85%
    11:00 -2°C° 0 mm 1 mps 677 mmHg 84%
    12:00 -2°C° 0 mm 1 mps 677 mmHg 86%
    13:00 -2°C° 0 mm 1 mps 677 mmHg 89%
    14:00 -2°C° 0 mm 1 mps 676 mmHg 91%
    15:00 -3°C° 0.1 mm 1 mps 676 mmHg 91%
    16:00 -4°C° 0.1 mm 1 mps 676 mmHg 90%
    17:00 -7°C° 0.1 mm 2 mps 676 mmHg 90%
    18:00 -7°C° 0 mm 2 mps 676 mmHg 85%
    19:00 -8°C° 0 mm 2 mps 676 mmHg 80%
    20:00 -8°C° 0 mm 2 mps 676 mmHg 75%
    21:00 -8°C° 0 mm 2 mps 676 mmHg 74%
    22:00 -8°C° 0 mm 2 mps 676 mmHg 72%
    23:00 -8°C° 0 mm 2 mps 676 mmHg 71%
    Show more